Location: Newark
(37.8444°N, 127.0614°E)
Time: 00:10:29
(UTC+00:00)

Envisat - Visible Passes

Search period start: 13 November 2019 00:00
Search period end: 23 November 2019 00:00
Orbit: 764 x 766 km, 98.1° (Epoch: 12 November)

Date Brightness Start Highest point End Pass type
(mag) Time Alt. Az. Time Alt. Az. Time Alt. Az.
13 Nov 3.0 09:17:28 10° SSE 09:22:26 60° ENE 09:27:26 10° N visible
13 Nov 6.0 10:59:11 10° WSW 11:01:49 14° W 11:04:28 10° WNW visible
13 Nov 5.7 21:28:51 10° NE 21:32:55 24° E 21:36:56 10° SSE visible
14 Nov 3.9 08:41:43 10° SE 08:45:54 27° ENE 08:50:06 10° NNE visible
14 Nov 4.7 10:20:14 10° SSW 10:24:46 33° W 10:29:19 10° NNW visible
15 Nov 3.1 09:42:50 10° S 09:47:53 77° WSW 09:52:59 10° NNW visible
16 Nov 3.2 09:06:24 10° SE 09:11:13 46° ENE 09:16:04 10° N visible
16 Nov 5.7 10:46:59 10° SW 10:50:27 18° W 10:53:55 10° NW visible
16 Nov 6.0 21:18:02 10° NE 21:21:33 19° E 21:25:02 10° SE visible
17 Nov 4.2 10:08:40 10° S 10:13:26 42° W 10:18:16 10° NNW visible
18 Nov 2.9 09:31:33 10° SSE 09:36:38 84° ENE 09:41:44 10° N visible
18 Nov 5.1 21:42:38 10° NNE 21:47:13 33° E 21:51:46 10° SSE visible
19 Nov 3.5 08:55:24 10° SE 09:00:00 37° ENE 09:04:38 10° N visible
19 Nov 5.3 10:35:04 10° SSW 10:39:05 23° W 10:43:07 10° NW visible
19 Nov 6.1 21:07:28 10° ENE 21:10:10 14° E 21:12:51 10° ESE visible
20 Nov 3.7 09:57:11 10° S 10:02:08 54° W 10:07:07 10° NNW visible
21 Nov 2.9 09:20:22 10° SSE 09:25:23 66° ENE 09:30:25 10° N visible
21 Nov 6.1 11:02:38 10° WSW 11:04:49 13° W 11:07:01 10° WNW visible
21 Nov 5.5 21:31:40 10° NE 21:35:53 26° E 21:40:05 10° SSE visible
22 Nov 3.8 08:44:30 10° SE 08:48:49 29° ENE 08:53:09 10° N visible
22 Nov 4.9 10:23:20 10° SSW 10:27:44 30° W 10:32:10 10° NW visible
22 Nov 6.4 20:57:33 10° ENE 20:58:46 11° E 20:59:59 10° ESE visible
